Location: Caltech
(34.1382°N, 118.1253°W)
Time: 02:27:21
(UTC-07:00)

Iridium 12 - Visible Passes

Search period start: 25 May 2015 00:00
Search period end: 04 June 2015 00:00
Orbit: 776 x 779 km, 86.4° (Epoch: 24 May)

Date Brightness Start Highest point End Pass type
(mag) Time Alt. Az. Time Alt. Az. Time Alt. Az.
25 May 8.1 04:01:03 10° ESE 04:04:24 18° E 04:07:59 10° NE visible
26 May 5.5 05:06:04 10° S 05:11:16 80° W 05:16:30 10° N visible
27 May 6.4 04:32:46 10° SSE 04:37:48 52° E 04:42:52 10° NNE visible
28 May 7.5 04:00:10 10° SE 04:04:24 27° E 04:08:47 10° NNE visible
29 May 8.2 03:28:39 10° ESE 03:31:05 14° E 03:33:50 10° NE visible
29 May 5.7 05:06:20 10° SSW 05:11:25 53° W 05:16:30 10° N visible
30 May 5.7 04:32:40 10° S 04:37:52 79° E 04:43:06 10° N visible
31 May 6.8 03:59:38 10° SSE 04:04:26 40° E 04:09:18 10° NNE visible
01 Jun 7.8 03:27:21 10° SE 03:31:04 21° E 03:34:58 10° NE visible
01 Jun 6.2 05:06:50 10° SSW 05:11:35 35° W 05:16:20 10° NNW visible
02 Jun 8.4 02:57:13 10° E 02:57:47 10° E 02:58:44 10° ENE visible
02 Jun 5.5 04:32:47 10° S 04:37:58 70° W 04:43:11 10° N visible
03 Jun 6.0 03:59:24 10° SSE 04:04:28 60° E 04:09:37 10° N visible
